CAPE
2530 2741 2979 2982 3052 2977 2920 2846 2738 2806 2760 2552 2435 2773 2803 3080 3147 3151 2935 3113 2871 3055 2910 2814 2616 2596 2296 2620 2932 2675 2640 2722 2976 3196 3181 3067 3076 3685 3467 3224 3133 2822 2419 2245 2151 2044 2007 1918 1657 1665 1786 1763 1590 1633 1820 1907 1964 1745 1986 1574 1583 1620 1616 1702 1686 1780 1721 1634 1424 1522 1625 1451 1462 1522 1578 1532 1457 1535 1496 1378 1388 1505 1760 1759 1830
2480 2845 2763 2971 3034 3003 2927 2745 3037 2968 2660 2513 2546 2542 2566 2817 2824 2968 3122 2945 2999 2712 2085 1879 1880 2266 2218 1583 1397 1266 1383 1804 2557 2754 2987 2838 2898 3023 3405 3314 3282 2876 2554 2279 2004 2268 2071 2114 1856 1947 1922 1894 2026 2014 1658 1711 1865 1612 1764 1858 1731 1635 1551 1671 1596 1696 1748 1780 1567 1708 1610 1550 1628 1851 1690 1742 1647 1366 1198 1488 1481 1569 1629 1719 1765
2714 2855 2806 3037 3094 3039 2952 3048 2895 2882 3075 2728 2711 2766 2439 2485 3022 2911 3109 3324 2774 1992 1593 1183 1699 1368 1324 888 674 705 810 955 1097 2108 2085 2384 2789 3178 3202 3386 3324 2954 2738 2411 2205 2257 2080 2185 2092 2057 1993 1860 1888 1871 2064 1608 1644 1740 1437 1553 1686 1873 1826 1624 1707 1656 1652 1708 1667 1727 1704 1771 1860 1792 1856 1787 1773 1594 1484 1449 1486 1553 1587 1614 1720
2714 3087 2950 3096 3088 3210 3234 3085 2971 3250 3216 2990 2950 2826 2621 2700 3218 3455 3526 3348 2120 1048 903 416 562 332 686 368 376 595 675 762 707 1692 2451 2504 2686 2961 2687 3245 2864 2994 2784 2424 2355 2356 2215 2200 2175 1999 2140 1999 1934 2077 2168 1872 1861 1769 1709 1770 1681 1433 1434 1714 1816 1940 1743 1596 1752 1715 1770 1831 1842 1924 1912 1922 1756 1342 1713 1496 1502 1630 1643 1626 1642
2728 2851 2689 2751 3020 3359 3310 3322 3168 3143 3194 3672 3528 3036 2798 2720 2779 2871 3106 2280 920 592 607 235 206 361 317 207 358 678 485 544 666 1085 2352 2352 2562 1831 2136 2889 3361 2870 2756 2463 2690 2444 2429 2224 2214 2015 1863 1881 1784 1860 2120 2019 1966 1812 1699 1818 1654 1631 1422 1431 1700 1726 1453 1738 1847 1817 1905 1826 1843 1866 1840 1832 1801 1779 1668 1704 1744 1688 1658 1678 1714
2922 3062 2869 2811 3004 3166 3168 3211 3280 3471 3546 3863 3151 2837 2789 2957 2811 2890 1688 976 655 548 408 273 285 196 146 61 29 529 281 191 486 832 1456 1952 1973 1841 1907 2664 2790 3628 3045 2516 2442 2471 2420 2296 2118 2087 1978 1946 1838 1893 1870 1953 1987 1985 1811 1656 1567 1632 1496 1550 1659 1529 1490 1567 1647 1666 1835 1838 1679 1674 1710 1702 1716 1772 1709 1918 1856 1825 1836 1719 1689
2980 3332 3239 2791 2712 3029 3116 3097 3258 3511 3582 3545 3234 2877 2644 2548 2840 2712 1661 704 533 569 446 469 323 142 52 55 46 182 238 33 209 266 930 2300 2647 2250 1620 2183 3145 3161 2772 2154 2266 2336 2301 2171 2081 2079 2000 1858 1845 1871 2075 1958 1889 1871 1856 1738 1811 1608 1532 1342 1341 1357 1475 1516 1625 1760 1786 1782 1920 1944 1944 2033 1759 1695 1702 1854 1768 1761 1833 1816 1802
2862 3167 3067 2920 2596 2382 2469 2826 3869 3418 3622 3783 3505 2922 2934 2833 3170 1809 1038 626 160 226 313 506 342 258 272 104 62 11 41 137 105 67 413 1196 1752 2378 2193 1980 2886 3378 3138 3060 2814 2802 2085 2081 1976 2004 2078 1914 1823 1900 1895 1910 1859 1748 1762 1685 1658 1765 1494 1445 1444 1374 1409 1506 1586 1756 1736 1762 1737 1868 1887 1836 1906 1883 1662 1741 1665 1667 1559 1526 1651
2788 2833 2789 2494 2562 2374 2254 2704 3655 3295 3862 3897 3292 3026 3350 2746 3046 1628 1022 846 42 63 52 276 327 280 93 158 96 93 253 231 79 129 269 883 1519 2006 2775 3438 3299 2811 3060 2874 2813 2775 1984 1807 1885 1694 1893 2034 1958 1776 1843 1841 1873 1794 1663 1680 1681 1518 1609 1452 1420 1293 1381 1625 1556 1544 1684 1789 1790 1791 1791 1759 1753 1756 1721 1686 1769 1691 1575 1500 1502
2759 2678 2634 2360 2391 2511 2060 2530 3111 3632 3821 3815 3466 3205 3338 3178 2840 1577 972 592 78 8 14 133 362 316 115 37 120 205 257 269 267 184 131 560 1319 2252 2638 2988 2676 1956 2119 2415 2371 2786 2268 1749 1862 1708 1768 1569 1800 1701 1608 1903 1949 1619 1828 1766 1612 1547 1692 1635 1496 1350 1495 1450 1518 1505 1597 1531 1614 1598 1654 1657 1674 1672 1640 1649 1570 1469 1293 1252 1420
2732 2794 2760 2352 2268 2430 2315 2458 2662 3582 3974 3533 3430 3620 3048 2837 2041 1730 1327 590 292 62 5 17 408 62 48 113 273 531 393 279 405 374 354 337 805 2480 2529 2697 2559 2433 2317 2079 1990 1778 1933 1904 2296 2791 2603 1432 1908 1632 1819 1966 1840 1620 1783 1701 1509 1714 1740 1753 1763 1626 1507 1652 1636 1509 1530 1476 1488 1394 1604 1558 1413 1288 1307 1377 1329 1482 1546 1544 1570
2752 2682 2816 2726 2508 2409 2390 2389 2709 3040 3664 2828 2948 3484 3896 4127 2108 1353 1572 1207 652 164 82 13 100 220 285 274 396 667 831 445 569 374 345 282 934 2076 1728 2432 2563 2368 2155 2072 2142 1796 2078 2391 2019 2709 2294 2021 1864 2037 1940 2061 2092 1644 1632 1781 1688 1796 1727 1691 1707 1600 1506 1457 1535 1451 1340 1333 1480 1550 1586 1488 1407 1224 1102 1185 1224 1233 1242 1217 1255
2754 2884 2840 3038 2940 2625 2530 2885 2775 2965 3162 2685 2509 2535 2653 2467 1744 1793 1477 1309 539 342 48 109 448 89 241 337 409 763 462 493 388 423 281 527 812 2117 2247 2215 2321 2441 2301 2316 2239 2008 1867 2184 1924 1897 2193 2809 2394 2242 2261 2187 2194 2141 2034 1932 1796 1791 1788 1752 1616 1618 1460 1352 1324 1366 1228 1253 1352 1329 1412 1413 1289 1210 1617 1644 1498 1414 1374 1328 1415
2866 3050 3069 3128 3167 2775 2845 2902 2912 2870 2846 2863 2815 2724 2745 2338 1602 1676 1587 1119 598 154 277 119 46 152 29 106 382 272 453 239 172 271 348 543 967 1643 1496 820 803 1108 1637 2022 1590 1175 1338 1771 2294 2263 2260 1925 1834 2200 2777 2597 2120 1704 1788 1910 1888 1958 1986 1805 1904 1558 1526 1460 1363 1466 1418 1225 1359 1535 1454 1432 1412 1285 1203 1434 1300 1338 1197 1178 1141
2997 3002 3119 3303 3134 2980 2881 2937 2886 2842 2958 2937 2793 2614 2615 2115 1889 1524 1207 1239 677 404 286 321 77 118 538 589 315 155 426 292 144 190 192 387 692 595 452 326 437 879 777 816 362 110 250 602 1800 2353 2514 2326 2208 2318 1303 1412 2089 1817 1874 2132 1828 1973 2004 1820 1882 1931 1746 1657 1650 1787 1736 1665 1620 1640 1612 1618 1416 1260 1216 1145 1230 1078 1052 1255 1144
2931 2998 3094 3152 3226 3093 2985 2827 3018 3022 3037 2829 2760 2472 2515 2310 1840 1526 1059 727 529 449 445 410 461 408 382 240 152 24 221 288 296 192 176 345 270 334 254 424 457 618 404 177 10 65 182 613 1117 1260 1136 1654 1295 1422 975 990 2047 1802 1589 2242 2099 2103 1763 1534 1445 1594 1457 1255 1143 1093 1003 1112 1316 1402 1377 1539 1563 1558 1469 1545 1512 1394 1465 1320 1147
3048 3093 2986 3158 3482 3355 3008 3009 3039 3181 3127 2891 2758 2343 2468 1917 1673 1482 1289 770 409 321 374 616 523 674 579 134 0 83 62 74 70 119 145 296 270 173 236 194 304 547 164 36 242 318 189 399 958 1205 1221 1202 1074 397 132 490 841 1079 1536 1924 1734 1488 1388 765 767 823 485 406 520 634 627 548 481 452 630 818 1040 1235 1490 1457 1430 1370 1351 1374 1209
3081 3214 3167 3043 3470 3579 3395 3134 3158 3203 3204 2837 2646 2578 2404 2129 1587 1275 1044 1084 365 150 445 419 604 690 728 548 1214 425 250 150 116 292 271 165 224 133 203 104 236 428 352 196 375 324 242 228 438 632 924 677 326 106 5 1 158 426 98 886 1298 184 435 926 499 403 488 376 311 355 507 463 499 350 496 619 484 632 903 952 1063 983 970 1070 1057
2844 3045 3146 3155 3329 3680 3580 3355 3101 3178 3248 3132 2931 2646 2181 2188 1331 1253 1315 1234 644 152 367 509 590 602 299 254 370 256 195 321 169 272 358 345 123 146 84 67 123 261 266 90 87 189 269 165 33 70 217 91 42 103 107 0 54 193 205 292 566 278 266 727 514 370 397 487 272 214 254 481 446 566 622 607 494 456 566 506 536 474 501 537 618
2609 2984 3152 3271 3400 3519 3615 3520 3283 3093 3078 3228 2961 2620 2240 2326 1603 1361 1460 1344 940 190 293 441 261 253 45 176 254 309 518 421 347 238 199 231 358 155 46 34 60 25 32 20 6 115 309 287 48 0 6 99 189 194 79 187 141 42 28 469 232 276 221 258 326 313 268 225 206 378 393 266 407 449 484 446 565 563 560 596 438 576 590 460 569
2940 2912 3376 3356 3429 3491 3656 3628 3265 3243 3184 3193 2985 2869 2629 2396 2144 1650 1506 1418 1010 210 426 829 298 211 290 222 199 351 335 207 450 459 415 246 88 185 124 24 38 26 28 11 10 3 149 170 211 181 6 4 57 138 88 92 209 300 1 293 806 914 896 509 164 131 257 375 439 102 22 278 311 212 338 312 349 329 349 324 210 288 298 214 104
3477 3197 3518 3462 3438 3596 3463 3482 3446 3080 3120 3167 2921 2819 2840 2784 2496 1862 1716 1463 1142 473 401 967 578 569 542 551 211 232 245 445 276 312 278 333 121 21 68 82 108 88 57 18 146 17 8 111 87 92 70 78 12 1 39 70 238 259 374 32 79 710 1148 1080 910 443 281 367 441 259 72 0 45 241 316 212 144 283 239 76 120 134 23 3 9
2872 3267 3465 3511 3436 3498 3239 3070 3187 3125 3223 3373 3277 2740 2761 2679 2521 2101 1799 1529 1289 668 411 645 872 862 748 650 356 238 384 355 265 212 314 352 201 16 2 1 10 97 83 60 176 69 12 39 0 4 225 129 122 140 120 97 82 679 730 464 685 255 354 842 1093 798 662 265 2 144 106 21 0 0 16 126 298 331 334 143 85 202 65 48 32
3323 2562 3202 3258 3513 3511 3396 3175 3241 3260 3228 3385 3291 3017 2704 2229 2479 2257 1857 1631 1521 921 541 664 917 1038 919 554 314 223 211 160 174 437 427 380 231 135 48 93 58 20 96 233 156 86 55 52 20 8 72 146 194 188 216 232 230 850 429 554 736 1051 584 424 542 1058 1032 754 490 172 35 7 12 0 0 0 0 4 74 135 204 228 113 98 89
3524 3039 3016 3297 3289 3791 3616 3545 3503 3450 3315 3278 3342 3318 2895 2257 2355 2318 2053 1688 1618 1215 716 676 750 813 670 493 395 326 216 114 27 98 285 243 449 347 152 92 151 82 83 98 118 7 9 37 62 21 40 146 185 326 306 278 254 1060 1286 1450 425 1128 560 888 644 679 1001 918 804 628 548 561 533 598 413 239 214 270 208 75 25 3 8 9 2
3382 3664 2876 3055 3084 3694 4005 3815 3740 3615 3425 3561 3434 3448 3274 2839 2685 2624 2211 1843 1683 1388 986 628 803 825 783 750 544 481 330 139 47 1 24 174 233 186 263 292 139 24 161 285 145 76 70 14 22 113 107 117 144 255 361 169 224 2022 1235 676 1234 616 721 458 487 444 637 795 748 754 615 526 381 402 655 708 490 457 479 557 560 503 329 182 79
3118 3553 3556 3102 3419 3697 4002 3740 3680 3815 3645 3456 3482 3456 3378 3085 2875 2806 2288 1904 1786 1530 1155 672 676 778 726 859 736 603 515 347 40 26 0 2 0 58 110 358 143 0 82 198 230 151 48 124 45 52 219 326 240 323 363 300 174 1792 1520 1492 243 991 617 412 366 222 299 401 501 785 813 796 775 587 548 625 807 780 661 689 703 821 882 874 766
3218 3378 3892 3584 3696 4045 4206 4024 4019 4071 3975 3753 3752 3410 3426 3197 3036 2784 2565 1940 1811 1786 1445 900 602 837 814 823 710 486 485 400 183 151 74 25 9 6 87 101 65 149 25 102 178 260 72 41 184 169 356 489 422 267 555 464 162 1569 910 383 387 730 827 595 312 201 155 166 262 435 656 737 752 702 667 668 737 854 786 701 738 804 838 791 762
3142 3725 4040 4155 3982 4100 4125 3974 4135 4102 4053 4055 3836 3596 3523 3318 3150 3222 2907 2091 2111 1939 1594 1046 688 698 813 829 777 543 624 546 343 178 310 190 114 147 106 38 55 61 344 406 376 129 201 21 45 708 502 730 840 339 545 374 356 458 377 342 294 461 1030 680 408 281 164 142 155 140 174 224 246 281 371 441 548 644 718 827 879 988 1080 1200 1061
3061 3414 3823 4282 4423 4103 4104 4116 4006 4157 3901 3610 3802 3539 3551 3349 3254 3402 3172 2720 2133 2015 1809 1366 816 550 715 853 752 610 552 799 686 346 453 474 225 208 172 109 276 386 238 358 391 252 106 154 0 456 928 898 575 655 473 511 720 281 130 279 282 274 668 390 338 234 121 74 54 28 32 76 87 105 108 97 100 144 241 348 536 729 833 1013 1108
3394 3538 4003 4237 4354 4552 4392 4213 3992 4089 4326 3800 3732 3568 3553 3483 3171 3225 3191 2802 2226 2238 2072 1728 1252 661 710 834 957 608 565 739 616 476 531 485 293 229 247 272 333 273 352 439 174 302 75 102 93 22 607 474 232 354 530 435 726 344 193 332 585 538 122 878 125 110 54 14 0 0 0 0 0 0 0 0 0 2 71 182 296 513 729 898 1002
3244 3738 3848 3924 4150 4250 4288 3848 3590 3949 4164 3935 3720 3665 3524 3607 3325 3218 2877 2637 2681 2529 2306 2000 1620 1063 859 911 964 856 604 681 555 458 548 542 372 315 317 448 525 386 348 425 349 280 428 16 142 152 67 491 291 258 301 484 1357 545 452 535 682 869 544 205 608 63 73 1 0 0 0 0 0 0 0 0 0 40 148 291 264 298 329 508 662
3320 3570 3862 3721 3745 4039 3827 3881 3512 3555 4192 4094 4067 4155 3849 3893 3655 3563 3180 2908 2798 2786 2496 2319 1934 1404 1238 1024 1009 1070 762 762 652 506 534 565 444 439 450 596 494 526 562 483 416 325 502 393 147 115 188 113 298 424 460 466 578 1058 412 307 504 638 464 445 486 561 79 102 24 0 0 0 0 0 0 0 1 79 222 334 298 192 203 205 202
3649 3380 3887 3858 3816 3753 3737 3950 3968 3817 4248 4508 4150 4132 4171 3979 3820 3642 3566 3014 2930 2919 2618 2622 2376 1751 1672 1291 1071 1137 976 944 761 684 567 521 461 387 551 546 531 599 653 683 407 380 528 732 672 177 229 420 294 572 690 532 404 449 770 932 923 843 773 558 382 293 377 266 24 1 0 0 0 0 0 0 0 0 3 9 4 1 1 5 2
3700 3601 3704 3757 3980 4122 3962 3905 4260 4168 4293 4591 4303 4156 4123 4095 4027 3654 3540 3356 2814 2849 2838 2749 2680 2211 1922 1653 1210 1159 1049 966 936 825 653 616 569 544 568 624 622 540 835 752 622 600 455 581 832 602 322 472 456 554 695 739 668 704 776 828 625 511 702 664 513 401 746 206 246 250 0 0 0 0 0 0 84 43 44 0 0 0 0 0 0
3569 3856 3680 3753 4017 4237 4208 4199 4267 4453 4420 4584 4523 4141 4175 4071 4059 4030 3759 3617 3351 3096 3092 3081 2900 2586 2188 1919 1556 1139 1084 1086 1059 967 810 731 713 767 695 831 769 721 763 1047 729 624 742 749 802 639 560 676 621 534 625 726 838 818 817 862 697 559 486 575 688 853 694 539 444 341 125 0 0 0 54 126 142 165 194 13 0 0 0 0 0
3127 3829 3873 3811 3970 4282 4270 4267 4345 4442 4458 4563 4535 4104 4080 4023 3986 3926 3851 3785 3695 3603 3382 3247 2964 2867 2543 2130 1871 1443 1286 1269 1294 999 998 961 822 798 824 908 1007 868 738 928 1065 817 751 787 750 910 826 761 681 660 624 650 728 710 808 805 688 1049 1221 826 560 671 719 503 305 242 220 289 275 264 289 259 202 196 224 274 315 176 0 0 178
3267 3257 3862 3867 3818 4270 4386 4332 4377 4511 4566 4524 4552 4290 4003 3993 3955 3763 3851 3792 3641 3640 3496 3302 3230 2973 2760 2480 2139 1826 1486 1524 1447 1064 1113 1161 1114 1009 976 905 994 964 838 981 1004 1047 878 835 890 669 931 728 700 782 867 820 739 841 1236 1316 1496 1336 1240 1121 726 727 992 1070 1090 1312 1114 974 726 723 543 311 156 167 213 208 273 203 337 369 388
3286 3095 3125 3798 3792 3955 4302 4378 4306 4396 4585 4485 4562 4508 4167 3967 4002 3869 3554 3695 3626 3591 3539 3289 3140 3027 2834 2696 2456 2156 1886 1727 1624 1280 1236 1372 1389 1287 1270 1120 999 1193 1114 1066 932 806 927 855 923 836 649 643 885 1076 952 1385 1486 1139 938 1171 1243 1307 1498 1541 1603 1398 1011 899 928 813 681 714 391 364 234 195 15 0 0 0 0 184 322 368 392
3219 3119 2871 3247 3759 3800 4162 4261 4247 4254 4404 4483 4552 4537 4375 3992 3893 3927 3543 3557 3503 3565 3487 3385 3126 2932 2844 2739 2512 2369 2185 2074 1930 1484 1345 1570 1592 1569 1362 1297 1089 1190 1192 1087 884 753 822 763 675 800 757 582 578 614 1710 2148 1704 1624 1303 1130 1304 1341 1483 1859 1710 1552 1627 1304 1037 644 743 651 802 906 536 633 593 531 506 455 421 474 498 448 444
3228 3094 3026 2932 3496 3866 3867 4127 4242 4094 4050 4317 4432 4520 4118 3845 3938 3834 3736 3478 3457 3465 3473 3281 3121 2898 2759 2679 2578 2442 2372 2080 1725 1440 1260 1401 1706 1515 1535 1444 1258 1308 1308 1137 994 897 794 731 749 693 759 742 587 854 1330 1568 1161 931 1334 1662 1689 1418 1158 895 1398 1706 1569 1388 1001 785 844 1005 799 754 872 946 944 1141 1338 690 656 549 641 652 496
3364 3356 3251 3128 3113 3652 3901 4051 4083 4125 3996 4092 3966 3684 3598 3748 3770 3730 3695 3595 3439 3353 3389 3299 3034 2973 2748 2579 2438 1961 1822 1730 1592 1262 1072 1194 1318 1360 1580 1562 1414 1339 1436 1257 1090 987 916 804 682 714 654 692 621 844 885 1270 1381 1539 1522 1758 1606 1441 1312 1132 989 1398 1733 1172 917 849 750 740 635 695 600 683 866 714 904 794 729 611 539 428 378
3590 3604 3479 3361 3134 3258 3732 3893 4060 4056 4057 3978 3430 3343 3154 2993 3265 3682 3721 3681 3582 3376 3286 3421 3230 2941 2792 2714 2619 2109 1638 1506 1452 1418 1294 1057 1134 1070 956 1174 1299 1378 1275 1265 1165 1114 1006 890 765 693 735 746 590 854 1264 1246 1137 1125 1388 1486 1562 1464 1269 961 580 1059 1400 1427 1215 692 494 612 516 536 549 508 677 1020 846 841 526 450 115 33 0
3715 3631 3591 3500 3503 3308 3403 3762 3865 3981 4080 3551 3163 3034 2846 2650 2728 3464 3663 3549 3496 3406 3196 3189 3232 3085 2891 2828 2734 2679 2282 1880 1783 1480 1472 1304 1024 794 732 867 1133 1009 978 1262 1212 1130 1095 1037 789 725 684 680 675 856 1207 1164 1345 1354 1449 1342 1551 1366 1144 1057 1074 1013 1130 1153 1166 520 371 566 475 382 410 423 601 848 697 597 434 146 53 20 1
3829 3886 3746 3711 3702 3545 3397 3650 3825 3894 3984 3463 3028 2792 2621 2436 2289 2664 3299 3457 3382 3316 3212 3165 3155 3227 3234 3084 2898 2742 2687 1814 1510 1705 1508 1485 1239 907 774 565 878 1020 982 891 944 1518 938 910 910 860 790 508 603 1323 1290 922 1070 1276 1619 1494 1414 1479 1190 1248 1209 885 1070 735 401 365 228 226 278 233 305 397 492 623 561 457 386 332 11 0 0
3815 3944 3794 3822 3831 3866 3700 3728 3853 3908 3992 3524 3095 2701 2475 2298 2176 2121 2922 3170 3305 3294 3272 3197 3109 3154 3246 3219 3110 2904 2742 2176 1823 1813 1879 1536 1418 1070 863 666 886 852 734 717 678 718 1069 810 872 856 771 634 922 2009 1630 1312 1342 1225 1362 1345 1354 1441 1476 1329 1494 1177 742 408 225 215 206 191 249 222 243 318 271 358 412 328 341 80 41 0 0
3939 4070 4008 3958 3918 3958 3847 3728 3803 3875 3999 3479 3248 2856 2493 2246 2076 1961 2642 2768 3050 3304 3330 3216 3163 3078 3209 3223 3264 3094 2823 2648 2008 1861 2019 1992 1777 1295 1022 975 823 896 947 684 703 701 815 616 609 800 863 1082 1537 1479 1344 1416 1334 1273 1572 1784 1770 1566 1456 1179 784 462 261 166 296 205 271 260 198 121 129 104 94 101 176 122 33 51 6 0 0
3740 3868 4050 3939 3906 3888 3940 3956 3754 3836 3934 3327 3180 2984 2664 2373 2135 1942 2403 2747 2897 3052 3323 3343 3127 3129 3134 3233 3347 3145 3042 2827 1942 1582 1692 2160 2076 1801 1496 1204 1214 1186 1142 1014 929 734 453 699 591 519 245 439 913 2833 3067 1196 1574 1465 1208 1107 1161 1027 786 526 377 203 177 190 196 296 231 230 201 36 41 51 74 122 130 126 80 0 7 0 0
3669 3911 4039 4003 3987 3966 3994 4040 3936 3898 4052 3774 3083 2913 2714 2461 2268 2118 2280 2640 2856 3046 3263 3078 2833 2761 2764 3138 3345 3280 3148 2735 2081 1766 1602 1622 2132 1838 1674 1532 1383 1410 1417 1286 1124 886 538 327 470 452 313 320 366 486 617 811 2080 1173 956 1091 1033 653 914 838 642 236 198 161 153 146 134 140 109 38 53 65 93 106 123 105 149 0 0 0 0
3483 3606 3908 3997 4096 3968 3832 3988 3868 4143 4061 4082 3085 2826 2618 2432 2309 2284 2282 2608 2807 3000 3123 3005 2822 2716 2691 2373 2825 3222 3194 2909 1932 1694 1606 1637 2055 1995 1846 1473 1457 1467 1451 1277 1057 757 510 279 435 563 356 268 187 0 67 252 622 738 1118 631 415 503 559 638 359 115 70 85 96 71 176 141 76 34 40 60 46 114 139 100 2 0 0 0 0
3682 3649 3499 3806 4047 4075 3942 3882 3590 3590 3830 3617 3270 2987 2684 2543 2468 2382 2461 2557 2683 2938 3000 2877 2668 2379 2700 2470 2412 2567 2699 2578 1943 1813 1651 1670 1744 1645 1849 1534 1531 1476 1368 1146 965 1087 767 671 614 392 342 186 149 361 332 0 0 345 835 608 413 398 290 232 107 52 57 89 48 174 116 114 32 13 3 10 36 30 13 10 0 0 0 0 0
Wind_Speed
7 7 8 8 8 8 8 7 6 6 6 4 5 5 5 5 5 7 6 6 6 6 5 5 6 6 6 7 8 8 9 10 10 11 10 8 9 5 8 7 6 6 5 4 4 4 4 4 3 3 3 2 2 2 1 4 4 4 5 7 9 9 10 11 12 12 12 12 11 10 10 8 8 7 6 5 4 4 4 4 4 5 5 4 4
6 7 7 7 7 7 7 6 6 4 5 4 5 6 4 5 5 6 6 6 5 4 5 5 6 5 5 5 7 8 9 9 9 11 9 10 7 5 8 7 7 5 4 5 4 4 4 4 4 3 3 3 2 3 3 3 2 3 4 5 7 8 8 9 9 11 11 11 12 12 11 10 9 8 7 5 4 3 3 3 4 4 5 5 5
5 6 6 6 6 6 6 4 5 4 4 5 4 4 4 4 4 5 5 4 4 4 4 4 7 7 8 7 8 7 7 7 9 9 10 8 7 6 6 8 7 6 4 5 4 4 4 4 3 4 4 4 3 4 3 3 3 3 4 3 4 6 6 5 6 8 8 9 9 10 11 11 10 8 8 7 5 4 3 3 3 4 4 6 6
5 5 6 5 5 4 4 4 3 3 3 3 3 3 3 3 4 4 5 5 4 4 2 3 4 6 7 8 6 6 5 5 6 5 6 6 7 5 4 6 7 5 4 6 6 5 4 4 4 5 4 4 4 3 3 2 3 4 4 4 4 4 4 5 4 5 4 5 5 6 8 9 9 9 8 7 6 6 3 2 3 3 3 3 4
5 6 6 5 4 4 5 4 4 4 4 3 3 4 4 6 7 7 6 6 5 3 4 4 3 4 3 6 4 5 5 5 6 6 5 7 6 5 8 6 5 7 5 5 5 4 4 5 4 3 3 2 4 4 3 3 4 5 4 3 4 4 4 4 3 2 4 4 4 5 5 5 6 7 6 6 6 5 5 4 3 2 3 3 3
5 5 6 4 4 5 5 5 5 4 5 5 5 4 4 5 6 7 7 7 5 4 3 3 2 3 4 nan nan 4 4 6 4 6 5 6 6 9 8 6 7 6 5 5 5 5 4 5 3 2 2 2 1 3 3 4 5 4 4 3 4 4 4 4 3 5 6 4 3 3 2 3 4 4 4 4 4 5 5 8 8 6 4 2 3
5 5 5 5 4 5 6 5 4 4 5 5 4 3 5 6 7 8 8 9 7 6 5 4 2 2 nan nan nan 4 3 nan 6 5 9 7 10 10 11 6 8 8 5 5 4 6 5 4 3 2 1 4 5 4 3 5 5 4 4 5 6 6 6 5 5 5 7 7 6 6 5 4 4 4 4 4 5 4 5 6 7 5 4 4 3
5 5 5 5 5 5 5 4 5 4 4 5 5 5 5 6 7 9 9 7 7 9 8 7 6 4 3 2 nan nan nan 3 4 nan 7 8 8 9 11 12 11 9 7 4 4 4 4 2 2 1 2 3 1 3 3 3 3 4 5 5 7 6 6 8 7 6 6 8 7 7 8 9 9 8 8 7 5 3 4 3 4 4 5 4 4
6 5 5 5 5 5 5 6 5 5 4 4 4 3 4 6 8 7 8 9 nan nan nan 8 7 6 nan 7 nan nan 1 5 nan 6 7 9 9 11 12 11 10 8 10 6 5 4 6 3 5 4 3 3 5 4 3 3 4 4 4 4 5 6 7 7 7 7 7 7 6 7 8 10 11 11 11 11 8 6 3 2 2 1 1 2 2
5 5 5 6 6 6 5 6 5 5 4 4 3 4 5 6 7 8 8 7 nan nan nan 8 8 9 7 nan 7 4 5 4 3 4 7 9 8 8 9 10 11 11 8 9 6 6 7 7 7 6 4 4 6 7 5 3 4 2 3 4 5 7 7 6 6 6 6 5 5 6 7 8 9 9 11 10 9 7 7 7 5 3 3 2 2
5 6 6 7 8 8 7 7 6 6 4 4 3 3 4 6 7 9 9 8 7 nan nan nan 10 nan nan 7 7 6 3 4 4 4 5 7 8 8 9 9 9 10 9 9 9 6 7 7 5 5 6 7 8 9 8 5 4 4 4 5 6 8 7 5 4 4 4 6 6 5 4 7 8 8 9 9 10 10 8 7 7 6 6 6 6
5 6 7 8 9 8 8 8 8 7 7 6 4 3 4 6 9 11 12 11 11 9 nan nan 10 8 5 5 6 4 5 3 4 5 7 8 8 6 7 10 10 10 11 10 7 11 6 8 9 8 7 9 10 9 10 9 8 8 8 7 8 8 8 6 5 4 3 1 1 1 4 8 7 8 9 9 9 10 10 10 9 9 9 9 9
5 7 8 8 9 8 9 9 9 9 8 7 6 5 6 8 9 11 13 11 10 12 nan 10 8 nan 8 8 7 6 5 6 4 5 7 5 7 6 7 8 10 11 11 10 10 10 12 10 10 11 11 9 11 11 12 11 11 9 7 9 8 8 8 6 7 7 7 4 1 3 5 3 3 4 6 8 8 8 7 8 9 9 8 8 9
6 7 7 8 8 9 9 9 9 8 8 7 6 6 7 9 10 11 11 10 10 10 10 12 nan 11 nan 9 7 8 6 5 7 8 6 7 6 7 8 9 11 11 11 12 12 13 12 11 10 8 9 12 11 13 13 13 13 11 9 7 8 7 8 8 9 8 10 8 5 6 6 7 5 5 6 7 7 7 7 7 8 7 7 7 7
6 6 7 7 8 8 9 8 8 8 7 7 7 7 8 10 11 10 10 11 10 9 12 15 nan 11 8 9 10 10 10 8 7 7 6 6 6 7 8 11 10 10 10 11 11 11 11 12 11 11 10 9 11 12 14 14 13 14 11 10 10 10 10 11 12 12 14 14 13 12 10 9 7 7 5 4 5 5 7 8 8 8 8 7 7
6 7 6 6 7 8 8 7 7 7 7 6 7 8 9 10 10 10 10 9 11 11 12 13 11 13 14 11 9 nan 10 11 10 8 8 7 8 10 10 11 11 10 10 10 nan nan 12 13 13 13 12 11 10 10 10 12 15 14 13 12 10 11 12 13 13 14 14 15 15 14 13 12 11 11 10 9 7 7 8 8 8 9 9 9 9
6 7 7 7 6 7 7 7 6 6 6 7 8 8 9 9 9 10 10 9 8 10 11 12 12 10 9 12 nan nan nan nan nan 7 7 8 9 10 11 9 13 10 10 nan 11 11 13 13 13 13 12 13 12 12 12 13 13 13 13 12 11 11 11 11 13 14 15 15 16 15 15 15 13 11 10 9 10 11 13 12 13 12 12 12 12
7 7 8 7 7 7 7 7 6 6 7 7 7 8 9 9 9 9 10 9 6 8 11 11 11 12 12 9 6 3 4 6 4 9 6 7 8 8 11 11 14 14 13 14 13 13 12 15 14 13 13 14 14 13 nan nan 12 11 nan 13 12 13 12 11 12 14 15 15 15 15 15 14 14 13 12 11 12 13 14 15 16 16 16 17 17
9 9 8 8 7 7 7 6 5 5 6 7 8 9 9 9 9 9 9 8 9 10 12 14 14 13 14 13 10 7 4 5 7 8 9 8 8 9 nan nan 14 15 15 nan nan 15 13 14 nan nan 14 nan nan 14 14 nan nan 12 13 14 13 14 14 13 12 13 14 15 14 14 14 14 13 13 13 13 14 15 16 17 18 18 19 20 21
9 10 10 10 8 8 7 6 5 5 6 8 7 8 8 10 11 11 10 10 11 11 13 14 15 15 nan 13 12 9 7 6 5 4 5 8 9 7 nan nan nan nan nan nan nan 17 15 12 nan nan nan nan 14 14 nan 14 15 nan nan 15 14 13 14 13 13 13 14 15 15 14 13 13 14 14 14 14 16 17 18 19 20 20 21 22 22
9 11 12 12 11 9 9 7 5 5 6 7 7 8 9 11 14 14 13 12 13 14 13 14 14 14 15 13 11 10 10 9 7 7 6 5 nan 11 8 nan nan nan nan nan nan nan 15 15 14 14 nan nan nan 13 nan nan 15 15 nan 18 15 14 13 13 12 13 14 15 15 16 nan 16 15 16 16 16 17 18 20 20 21 21 22 24 25
9 11 12 14 13 12 10 9 6 5 5 6 7 8 10 13 15 14 14 15 14 14 15 13 13 11 13 11 11 11 10 10 11 11 10 8 5 nan nan nan 7 nan nan nan 12 nan nan 14 nan nan nan nan nan nan nan nan 16 15 21 nan nan 16 16 16 14 14 15 16 16 16 nan nan nan 19 19 19 20 21 22 nan 23 23 nan nan nan
7 10 12 14 15 14 11 10 7 5 5 6 7 9 11 14 14 14 15 16 14 14 13 13 12 11 11 10 10 11 11 12 12 13 13 11 10 nan nan nan nan nan nan nan 12 nan nan nan nan nan 15 14 15 15 15 nan nan 20 25 21 21 18 19 19 18 18 19 18 nan 18 19 nan nan nan nan 23 23 25 25 26 nan 25 nan nan nan
5 7 10 14 14 14 13 10 8 6 6 6 8 9 11 14 13 13 14 15 14 12 12 13 13 11 11 11 11 9 9 10 11 12 12 12 11 10 nan nan nan nan nan 11 12 nan nan nan nan nan nan 12 14 14 15 15 18 26 19 24 22 23 22 21 22 22 22 23 22 21 nan nan nan nan nan nan nan nan nan 29 29 28 27 nan nan
6 7 9 12 14 15 14 12 9 7 5 7 8 9 11 12 12 13 14 14 13 13 12 13 13 11 11 11 11 10 10 10 nan nan 13 13 11 10 9 nan 9 nan nan nan 13 nan nan nan nan nan nan 11 12 14 14 15 15 25 18 27 26 26 24 24 24 24 25 26 26 25 25 25 25 26 28 29 29 30 31 nan nan nan nan nan nan
6 7 7 10 12 15 15 14 11 9 8 7 8 10 12 12 12 12 13 13 13 14 12 13 12 12 11 10 11 10 10 11 nan nan nan 14 13 13 11 9 8 nan 11 10 10 nan nan nan nan 12 12 12 12 13 13 13 14 27 24 16 27 27 27 26 26 26 27 28 28 28 27 27 27 28 28 29 29 29 30 30 31 30 30 30 nan
6 6 7 9 12 14 15 15 13 11 10 9 9 10 12 11 10 11 12 12 13 13 13 13 13 14 13 11 10 10 10 10 nan nan nan nan nan nan 12 11 12 nan nan 10 11 12 nan 12 nan nan 13 12 12 12 13 12 13 25 21 18 16 28 26 27 25 26 26 27 28 28 28 28 27 27 28 28 29 29 29 29 29 30 30 30 31
7 7 8 10 12 14 15 15 14 12 10 10 10 11 12 11 9 10 12 11 13 15 13 13 13 15 15 14 12 11 11 11 10 10 nan nan nan nan nan 11 nan 11 nan 10 12 13 nan nan 11 10 12 13 12 12 11 12 12 24 19 14 16 19 27 25 25 24 25 25 26 27 27 27 28 28 28 29 30 31 30 30 30 30 31 31 32
8 7 8 10 12 14 15 15 14 12 10 11 11 11 12 11 9 10 12 12 13 14 13 12 12 15 16 17 14 12 11 11 11 11 11 10 11 11 12 nan nan nan 11 13 13 12 15 nan nan 14 13 14 14 14 15 14 17 19 16 17 17 15 27 27 24 23 23 25 25 25 26 27 27 27 27 27 28 29 30 30 30 31 31 33 33
10 9 9 11 12 15 15 16 15 13 11 10 11 12 12 10 9 9 11 12 13 12 13 12 13 14 17 18 17 15 14 14 13 13 13 13 12 13 13 13 12 13 12 12 12 13 14 15 nan 14 16 16 17 18 17 18 23 18 18 17 19 20 32 28 28 26 26 nan nan nan nan nan nan 26 27 nan nan 29 29 29 30 31 32 33 33
12 10 10 11 12 14 16 17 16 14 12 11 12 12 13 10 10 8 10 12 13 13 13 13 13 15 18 19 19 18 17 17 16 16 15 15 15 15 16 16 16 15 14 14 12 14 nan 14 nan nan 17 17 17 19 20 19 24 23 20 20 21 29 28 28 29 28 nan nan nan nan nan nan nan nan nan nan nan nan nan 30 31 31 32 34 34
12 12 11 11 13 14 16 17 17 16 14 12 12 13 13 11 11 9 10 12 13 14 14 15 14 16 17 19 20 19 18 17 17 17 17 16 16 17 17 18 18 18 17 15 14 13 16 nan 16 16 nan 18 16 16 17 18 25 28 20 22 26 33 25 24 33 nan nan nan nan nan nan nan nan nan nan nan nan nan 32 33 33 34 35 35 36
13 13 12 12 12 14 16 18 18 16 15 13 13 14 14 13 12 10 9 12 13 14 15 16 16 15 16 17 20 21 21 20 18 18 18 19 19 18 17 18 18 19 18 17 15 13 14 14 14 15 17 15 18 18 16 17 20 24 24 23 24 25 25 24 25 34 nan 29 nan nan nan nan nan nan nan nan nan nan 34 35 36 37 37 38 37
13 13 13 13 13 14 16 18 18 17 16 14 14 14 15 15 14 12 10 11 12 14 15 16 16 14 15 18 20 22 22 21 20 19 19 20 21 21 20 19 17 17 18 17 15 13 12 16 15 16 17 19 15 17 17 17 19 22 24 24 26 26 25 24 23 26 36 31 nan nan nan nan nan nan nan nan nan nan nan nan nan nan nan nan nan
14 13 14 13 15 15 16 18 19 18 16 15 14 14 15 16 15 13 11 12 12 14 16 16 17 16 17 18 20 21 20 21 21 20 21 22 23 23 24 21 17 16 18 18 16 15 14 14 16 17 19 21 19 20 20 19 19 20 21 23 24 26 26 24 23 23 37 33 34 32 nan nan nan nan nan nan nan nan nan nan nan nan nan nan nan
15 15 14 15 16 17 18 19 19 18 17 15 14 14 15 16 16 15 13 12 12 13 14 16 17 17 18 18 20 21 21 22 23 23 23 24 24 24 23 21 18 16 17 19 19 17 17 16 18 17 21 22 23 21 22 22 21 23 23 24 25 24 23 24 25 24 33 35 35 32 32 nan nan nan nan 33 35 37 38 nan nan nan nan nan nan
16 16 16 16 17 18 18 19 19 18 17 16 14 13 14 15 16 16 14 13 12 13 14 15 17 18 18 18 19 21 22 23 24 24 23 25 23 22 21 20 18 18 18 19 21 21 20 20 20 22 22 24 24 24 25 24 25 24 25 25 25 25 26 25 25 28 34 39 35 34 34 34 34 36 36 37 39 41 42 43 43 43 nan nan 40
16 16 17 17 17 18 19 19 18 17 17 16 15 14 14 15 16 16 16 14 13 13 13 15 16 18 18 19 19 21 23 24 22 22 24 26 24 22 21 19 18 19 20 21 22 23 24 22 22 24 28 27 28 27 28 27 25 27 29 29 28 27 27 28 29 31 31 33 34 38 41 41 43 42 42 44 44 45 46 46 44 43 41 38 37
15 15 15 16 17 17 18 17 15 15 16 15 15 15 14 15 17 17 17 16 14 13 13 14 15 17 19 19 19 21 23 24 22 21 24 26 23 22 20 19 19 20 21 22 23 24 24 25 25 25 27 30 30 31 31 30 28 27 29 29 28 29 31 31 32 34 34 35 38 42 38 35 36 39 48 49 nan nan nan nan nan 40 39 38 37
12 12 12 14 15 15 15 14 13 14 15 15 15 15 15 16 17 18 18 17 16 14 13 14 14 16 18 19 20 20 22 23 23 22 24 25 23 21 21 20 21 22 22 23 24 24 25 26 26 27 29 29 31 31 33 34 31 31 30 29 28 30 32 34 34 34 36 35 34 37 47 46 45 47 45 44 44 42 41 40 38 36 37 38 39
10 9 10 11 12 11 12 12 12 13 13 14 15 16 17 16 17 18 19 19 19 16 14 14 14 15 17 18 19 19 21 23 25 22 23 23 22 21 21 22 23 23 23 23 25 25 26 26 28 29 29 31 31 33 34 34 32 31 31 31 30 31 31 33 36 38 37 37 37 38 39 38 38 39 39 38 39 43 41 40 36 39 38 37 38
7 7 7 8 9 10 11 12 12 13 13 13 16 19 20 19 20 19 20 20 20 18 16 14 14 16 16 17 18 21 21 24 25 25 24 25 23 20 21 23 24 24 25 25 25 26 27 28 29 31 32 32 33 34 34 34 33 33 32 32 31 31 32 32 34 37 40 39 38 38 38 38 37 36 36 35 36 35 34 37 39 41 44 40 36
9 9 9 10 10 9 11 12 13 13 12 13 19 23 23 23 22 22 22 22 22 20 18 17 15 15 17 17 16 21 23 23 25 27 26 27 26 22 20 23 26 27 27 28 27 27 29 29 31 33 33 34 34 34 35 35 35 34 34 34 33 34 33 33 34 40 41 38 39 35 34 35 34 32 33 33 34 34 33 38 45 41 38 nan nan
10 10 12 13 12 11 10 11 12 12 12 14 22 24 26 27 26 24 24 23 23 22 20 18 17 16 17 17 18 18 21 23 24 26 28 30 29 27 25 24 26 29 28 28 29 29 30 31 32 34 34 35 35 35 35 36 36 36 36 36 36 36 35 35 36 35 42 41 37 34 32 34 33 31 32 32 33 33 32 40 40 42 nan nan nan
10 11 12 12 13 13 12 13 13 13 11 17 23 26 28 30 30 28 24 24 24 23 22 21 20 20 19 19 18 19 20 29 27 27 28 28 29 30 29 27 26 29 30 28 26 26 29 32 32 34 36 35 36 36 36 37 37 36 38 37 37 37 36 36 36 36 41 41 36 34 31 31 31 31 30 31 30 31 32 40 43 43 nan nan nan
11 12 13 13 11 12 12 12 13 13 14 20 26 28 29 30 31 29 24 24 23 22 22 23 23 22 22 22 20 20 21 27 29 30 29 30 31 31 29 28 27 29 29 30 31 29 27 31 34 35 37 37 37 38 39 38 39 38 38 37 38 37 38 37 37 37 38 37 35 34 31 30 31 29 27 27 29 31 34 43 51 nan nan nan nan
13 14 14 14 13 13 13 13 12 13 13 23 28 30 30 31 31 29 25 23 22 22 22 23 24 24 25 24 23 22 23 27 30 33 33 33 33 33 34 33 31 30 31 33 34 33 34 35 35 37 38 40 40 40 39 40 40 40 39 38 38 38 38 37 37 38 38 40 39 35 31 28 28 27 26 26 nan 32 34 46 nan nan nan nan nan
15 15 16 16 16 16 15 15 14 14 15 26 29 31 33 33 34 28 26 24 23 22 22 23 23 25 25 26 25 24 25 26 30 38 37 35 35 35 36 35 35 33 32 34 35 37 36 37 38 39 40 42 43 40 38 40 42 42 42 41 41 42 40 39 38 38 38 40 41 36 30 27 27 nan nan nan nan 33 36 35 nan nan nan nan nan
18 18 18 19 20 19 18 18 17 17 16 27 31 32 34 36 36 29 28 26 24 23 22 21 22 23 25 26 26 26 26 25 33 40 41 38 34 35 36 38 37 37 35 36 40 40 38 35 36 44 48 49 50 50 45 40 39 42 42 42 41 42 41 40 39 37 38 37 38 35 29 26 25 nan nan nan nan 34 35 38 41 nan nan nan nan
21 20 21 22 22 22 21 21 22 21 19 30 35 34 35 38 38 34 32 30 27 27 25 24 23 24 26 27 26 25 26 27 39 42 43 40 35 36 37 38 40 40 40 40 40 41 44 45 46 48 48 50 50 nan nan 44 43 41 42 40 41 41 41 41 38 37 nan nan nan nan 28 26 nan nan nan nan nan 37 38 39 nan nan nan nan nan
23 24 24 23 22 24 24 23 27 24 22 30 37 37 39 42 40 37 36 32 29 28 30 28 26 26 28 31 33 28 27 32 45 44 46 42 37 37 40 40 40 42 43 44 43 44 45 46 47 49 49 50 50 49 50 nan nan 42 40 39 40 40 40 38 38 nan nan nan nan 37 30 28 nan nan nan nan nan nan nan nan nan nan nan nan nan
Wind_Direction
96 96 98 97 96 92 84 78 86 76 64 65 73 76 66 71 65 70 66 61 52 48 37 28 36 12 29 19 30 40 46 49 40 41 50 50 58 2 20 26 24 23 10 26 33 30 19 4 20 40 29 43 50 24 278 291 293 290 304 303 312 310 304 295 293 286 289 289 289 289 287 284 289 280 289 288 287 289 291 293 294 303 304 299 309
93 100 95 94 92 86 85 79 73 69 66 46 35 43 38 50 51 60 70 73 63 44 40 6 357 5 5 22 25 35 30 36 39 44 28 41 50 15 20 25 39 38 15 25 38 35 44 20 25 38 52 57 67 78 56 40 4 338 332 331 321 315 309 306 295 295 289 287 288 290 290 291 294 291 292 292 291 289 290 300 307 314 315 307 306
101 91 94 92 87 85 80 74 59 46 45 30 18 24 18 34 39 53 58 71 68 52 52 11 340 359 359 15 16 19 23 28 28 33 37 36 37 36 14 26 23 33 33 30 12 11 59 63 44 50 49 54 60 51 75 64 48 43 31 16 337 292 269 287 315 311 299 293 289 288 290 289 290 290 288 293 291 292 299 319 323 322 319 314 312
103 96 95 89 90 84 75 61 53 33 25 21 12 356 13 12 17 44 52 49 47 50 56 33 358 343 357 359 348 4 10 21 15 19 31 31 30 22 44 28 31 30 31 41 15 22 39 64 62 52 31 29 38 40 43 30 50 39 15 338 328 308 315 274 267 248 272 281 279 278 278 283 282 279 277 276 280 284 296 313 312 305 295 296 303
89 86 90 88 84 76 65 49 28 19 7 353 4 18 13 10 8 27 31 33 30 29 31 39 357 322 25 311 334 335 353 5 12 347 4 17 6 342 27 30 37 16 37 58 39 37 42 50 73 88 60 29 43 27 28 25 37 33 19 350 332 345 343 2 358 318 257 256 258 253 247 255 273 270 270 267 266 262 260 255 255 265 287 297 306
90 86 92 85 64 55 53 38 17 7 357 3 16 11 25 31 30 27 27 32 13 10 25 32 7 360 350 nan nan 319 345 5 352 335 348 350 356 332 37 21 38 50 28 48 50 53 52 75 64 39 32 318 152 64 39 28 35 46 40 20 16 5 11 12 9 19 13 7 336 319 295 276 275 284 292 296 268 245 238 244 243 241 251 279 304
95 99 90 89 64 50 38 19 1 354 357 347 27 35 38 39 29 26 22 13 3 357 27 20 0 357 nan nan nan 318 0 nan 326 13 337 348 352 344 359 28 29 29 37 35 23 15 26 74 95 199 233 326 12 20 37 50 39 40 34 36 28 32 33 26 21 22 27 29 34 29 15 359 351 352 334 316 312 293 247 235 232 234 235 245 270
94 95 91 68 55 39 24 4 341 352 344 342 23 34 35 38 19 22 2 355 358 359 4 7 5 20 318 359 nan nan nan 332 342 nan 328 348 355 347 349 0 21 18 26 31 41 321 317 24 45 17 281 266 343 15 32 46 43 24 40 38 60 56 40 40 31 23 32 37 40 45 41 34 31 30 28 22 9 311 272 234 220 236 252 267 262
89 82 81 63 52 40 21 1 356 345 338 1 26 34 29 17 9 11 348 346 nan nan nan 4 2 13 nan 360 nan nan 292 319 nan 351 343 342 10 347 346 348 348 1 27 23 33 1 328 352 11 22 356 300 324 307 338 45 36 31 25 20 47 57 50 42 38 39 42 36 39 43 46 42 32 34 38 40 41 44 41 60 87 122 290 284 268
80 73 72 70 59 49 35 4 6 2 4 16 27 21 6 7 1 5 350 358 nan nan nan 2 353 20 351 nan 315 327 325 338 315 3 360 347 358 351 340 341 350 354 355 21 13 5 356 341 13 9 2 352 348 331 339 46 51 56 49 15 32 49 41 38 43 51 45 45 41 44 52 52 47 45 44 41 39 37 44 45 46 34 39 36 4
72 67 67 64 57 48 42 27 27 31 40 49 37 27 21 5 15 360 3 9 360 nan nan nan 2 nan nan 349 321 325 332 325 339 353 7 355 342 350 344 333 334 339 344 8 347 16 352 343 4 11 352 0 4 345 339 7 24 21 41 5 20 32 38 22 15 21 31 26 26 27 62 60 51 46 51 37 37 35 36 36 26 20 20 5 9
72 66 63 62 59 47 40 35 39 53 65 71 66 45 30 17 19 3 3 7 10 12 nan nan 5 357 2 352 340 337 327 328 338 352 348 3 340 347 338 325 329 331 338 347 351 342 5 357 356 18 346 360 10 353 349 359 359 3 26 15 26 18 15 7 353 332 283 239 207 246 39 61 51 46 45 42 29 23 25 25 22 17 10 4 1
77 66 60 55 53 47 39 38 46 58 68 72 68 48 30 28 10 5 7 17 13 17 nan 24 359 nan 3 16 356 360 357 336 345 354 348 346 317 339 316 315 317 325 328 334 342 342 348 359 352 347 340 332 350 1 5 355 347 348 355 356 12 7 359 347 325 314 304 264 357 7 39 43 50 20 30 14 9 15 15 16 17 11 0 355 354
78 66 61 54 45 38 35 38 47 58 64 66 60 40 26 25 11 6 17 24 26 36 1 21 nan 17 nan 2 359 355 348 6 353 351 344 328 323 323 314 314 314 320 323 328 337 339 336 339 342 332 332 330 347 348 347 352 338 337 334 336 332 325 315 314 312 301 300 313 346 17 6 10 21 7 12 19 12 10 0 343 336 332 336 340 339
71 61 60 50 42 35 32 34 44 54 55 52 43 32 22 21 18 23 18 18 32 25 25 41 nan 19 7 21 5 356 343 354 351 346 343 323 321 315 302 297 304 314 321 326 324 320 319 324 323 326 330 333 335 332 336 325 320 316 310 294 304 308 299 293 286 281 274 271 273 276 286 299 303 321 330 340 341 339 339 348 347 341 335 336 329
58 50 49 44 34 29 27 32 37 47 47 41 34 22 16 18 22 26 26 29 16 15 18 25 38 4 17 21 355 nan 346 342 347 346 348 335 330 313 311 309 302 309 323 315 nan nan 316 317 318 324 326 324 326 324 317 312 313 310 308 297 274 277 284 278 275 271 272 273 276 276 278 275 273 271 279 284 288 297 319 330 334 330 328 319 318
50 37 38 31 23 19 26 29 33 33 34 30 24 19 16 25 26 32 27 28 15 357 5 11 23 29 22 12 nan nan nan nan nan 332 347 333 327 310 301 311 305 314 307 nan 307 315 314 308 312 315 318 321 319 320 319 323 320 314 311 299 286 281 276 279 277 275 273 273 272 274 272 271 269 267 268 279 282 285 288 292 295 297 297 298 300
39 27 24 20 11 9 18 28 27 26 25 25 17 14 19 38 21 32 20 17 19 356 357 2 10 12 20 25 4 334 306 290 333 324 333 324 312 307 315 316 311 317 313 315 317 313 316 311 311 313 318 315 317 315 nan nan 318 316 nan 295 293 289 291 289 285 281 277 273 271 271 271 268 265 263 264 271 281 283 287 289 290 288 289 291 293
25 20 17 13 7 1 9 22 25 22 18 19 17 20 17 23 17 19 13 2 356 2 0 355 357 9 13 20 17 19 327 347 330 317 330 321 317 323 nan nan 312 314 321 nan nan 319 305 308 nan nan 310 nan nan 315 316 nan nan 299 290 298 298 297 297 299 291 285 283 280 277 271 266 264 263 261 264 269 275 280 282 287 288 289 289 290 290
26 18 18 11 5 1 4 13 18 22 13 16 21 19 9 5 5 4 0 357 359 359 0 353 357 3 nan 15 16 20 17 23 20 347 324 322 318 315 nan nan nan nan nan nan nan 307 307 305 nan nan nan nan 311 314 nan 310 312 nan nan 311 310 306 303 298 298 294 284 280 279 277 271 265 261 266 269 271 274 279 282 283 286 286 285 285 284
21 21 16 15 7 6 3 8 12 18 9 13 15 9 5 355 354 355 355 355 358 357 360 0 7 359 358 12 19 16 21 27 23 15 15 354 nan 326 319 nan nan nan nan nan nan nan 320 311 296 298 nan nan nan 309 nan nan 310 307 nan 313 310 310 306 300 296 291 287 280 275 272 nan 271 269 266 267 272 276 280 285 287 287 288 286 285 282
9 17 15 15 11 6 6 6 10 12 2 10 7 356 350 350 351 355 354 355 354 358 1 4 8 7 355 3 10 12 17 18 24 28 25 35 23 nan nan nan 342 nan nan nan 321 nan nan 309 nan nan nan nan nan nan nan nan 303 308 297 nan nan 306 306 307 304 296 291 285 280 276 nan nan nan 274 274 275 279 281 286 nan 290 291 nan nan nan
2 1 11 12 10 8 10 5 360 355 349 354 358 353 343 344 348 354 353 354 354 0 4 6 6 10 1 3 9 8 6 11 15 22 24 26 23 nan nan nan nan nan nan nan 329 nan nan nan nan nan 302 313 313 312 312 nan nan 291 295 304 304 305 306 306 305 303 297 294 nan 285 281 nan nan nan nan 284 286 289 290 293 nan 293 nan nan nan
343 356 1 8 5 5 7 3 351 342 341 338 344 345 337 336 340 349 353 355 357 360 0 1 8 5 9 1 6 11 0 10 7 6 17 20 13 21 nan nan nan nan nan 342 347 nan nan nan nan nan nan 319 316 315 309 308 303 299 315 315 315 312 310 309 309 306 306 303 299 295 nan nan nan nan nan nan nan nan nan 291 293 293 292 nan nan
327 353 2 3 359 359 360 354 343 335 331 331 335 339 336 336 339 351 354 354 357 355 354 359 4 6 3 6 2 3 358 359 nan nan 358 4 9 15 13 nan 343 nan nan nan 348 nan nan nan nan nan nan 329 326 322 322 320 318 317 327 314 320 318 316 314 313 311 309 308 306 304 301 299 295 292 291 290 288 288 287 nan nan nan nan nan nan
326 346 356 357 357 355 354 352 344 333 325 329 334 333 336 336 340 353 355 354 353 353 354 359 4 8 7 8 2 0 2 357 nan nan nan 358 6 15 13 3 5 nan 338 351 2 nan nan nan nan 355 356 352 350 341 338 333 327 319 329 318 320 323 322 320 318 316 314 312 310 309 307 305 303 301 300 299 297 295 294 292 291 288 287 286 nan
318 332 343 346 350 350 352 350 344 335 325 326 328 330 335 339 341 352 356 352 351 351 354 3 7 12 16 17 12 9 7 3 nan nan nan nan nan nan 17 18 15 nan nan 2 1 16 nan 352 nan nan 3 0 1 354 349 346 322 312 323 326 324 326 327 326 325 322 319 316 313 311 310 308 306 303 303 303 302 301 299 297 296 294 292 290 287
301 316 326 331 337 345 344 345 341 335 328 325 327 325 333 340 339 347 358 348 349 354 356 5 16 19 22 21 19 22 11 11 16 11 nan nan nan nan nan 19 nan 17 nan 15 12 12 nan nan 7 15 4 9 5 3 353 342 347 321 330 331 326 321 327 328 327 325 321 317 314 313 312 309 308 307 307 306 306 305 303 300 298 297 296 294 291
285 294 304 314 326 336 339 341 337 332 327 321 322 329 332 334 335 346 354 352 348 354 355 2 15 17 17 17 18 20 19 14 16 16 11 12 11 7 10 nan nan nan 14 15 13 16 2 nan nan 0 11 4 4 5 354 1 335 329 339 332 324 320 320 326 323 321 319 317 315 315 312 311 311 311 310 308 307 306 304 302 300 297 295 293 292
283 283 292 308 318 329 332 335 333 328 324 320 319 329 332 327 329 338 345 347 348 349 352 359 6 9 10 11 14 18 17 12 11 11 1 3 5 2 1 3 1 6 8 15 6 5 355 355 nan 354 359 359 360 353 354 353 320 336 336 333 327 317 305 316 318 320 321 nan nan nan nan nan nan 309 307 nan nan 303 303 303 301 300 298 296 293
281 287 289 299 309 317 324 330 329 324 317 314 311 318 329 323 318 332 341 346 346 347 347 354 357 357 4 10 11 16 13 11 7 5 2 0 1 359 356 353 352 357 359 356 4 350 nan 350 nan nan 342 353 356 348 344 346 332 333 332 326 325 303 311 315 322 322 nan nan nan nan nan nan nan nan nan nan nan nan nan 302 300 298 297 295 293
285 294 294 298 305 315 319 327 329 324 315 309 309 315 324 317 308 317 334 344 347 349 348 350 351 350 358 7 8 7 5 3 1 358 357 359 359 359 354 350 347 348 348 351 355 344 336 nan 337 338 nan 341 349 347 341 332 317 322 324 320 313 305 316 317 321 nan nan nan nan nan nan nan nan nan nan nan nan nan 302 301 299 297 295 294 292
287 294 298 298 300 309 318 320 327 321 311 303 299 303 313 310 302 310 322 337 348 349 352 355 357 354 359 3 0 357 354 355 352 350 348 347 349 349 347 346 345 342 343 344 347 347 337 333 331 332 329 337 337 338 336 331 324 319 318 315 313 312 309 308 308 319 nan 317 nan nan nan nan nan nan nan nan nan nan 298 298 297 296 296 295 293
291 295 298 294 295 305 313 316 318 318 308 301 300 298 304 305 304 297 311 333 347 356 359 1 359 359 1 3 359 355 353 355 354 352 346 340 339 340 340 343 342 339 337 337 340 339 337 324 327 325 323 324 329 326 327 325 321 316 315 310 308 308 307 307 311 310 322 320 nan nan nan nan nan nan nan nan nan nan nan nan nan nan nan nan nan
293 295 295 295 294 301 306 309 313 313 306 298 292 294 299 304 304 301 308 326 345 356 3 4 359 358 2 4 5 2 356 359 357 352 344 337 332 334 337 337 340 337 331 333 331 333 333 325 319 321 320 320 325 322 325 321 316 311 310 310 310 308 307 309 310 308 316 322 319 318 nan nan nan nan nan nan nan nan nan nan nan nan nan nan nan
289 290 293 295 295 299 304 307 309 308 304 293 287 289 296 302 302 302 304 317 331 345 352 351 349 351 1 5 7 5 0 358 355 349 345 340 335 331 334 336 338 339 331 329 332 328 324 324 321 321 317 319 322 323 319 318 320 319 317 312 310 307 310 313 314 315 314 316 317 319 318 nan nan nan nan 303 299 297 295 nan nan nan nan nan nan
291 285 286 290 293 296 298 303 304 305 300 291 285 284 288 295 301 299 301 308 318 330 340 342 342 345 354 2 2 1 358 357 356 358 358 357 352 348 345 343 342 338 333 331 330 328 327 327 324 322 320 319 319 320 321 322 324 323 320 318 313 313 316 317 316 315 314 321 323 324 321 321 319 318 313 307 303 300 297 295 295 295 nan nan 295
290 288 286 286 289 295 297 299 301 299 293 286 283 282 288 296 300 298 297 300 308 318 329 337 339 341 348 356 358 358 359 360 1 2 1 1 358 360 359 353 345 338 336 333 329 328 329 329 327 325 324 325 324 323 324 325 326 324 321 318 317 318 319 319 318 316 317 318 317 318 322 324 327 323 315 312 308 304 303 303 303 303 301 301 300
293 293 293 292 289 294 296 297 297 294 288 284 281 282 287 297 302 301 298 297 299 304 318 331 334 338 344 349 354 358 1 2 2 359 356 357 355 358 357 353 345 338 335 333 331 332 331 330 329 327 325 325 326 324 325 325 325 323 320 317 317 318 320 319 319 318 319 319 321 324 323 317 310 311 310 311 nan nan nan nan nan 309 306 305 303
301 304 305 300 294 292 295 296 294 288 286 283 285 286 289 299 303 302 298 294 294 296 307 321 329 331 338 345 351 356 359 359 1 360 357 356 352 352 348 345 343 341 338 335 335 334 334 332 330 326 326 325 324 324 320 320 324 324 322 320 318 316 317 318 319 319 317 316 318 318 324 327 326 324 321 317 316 317 317 315 317 316 313 310 305
295 311 312 313 307 301 299 298 295 290 288 287 284 289 294 304 303 302 299 296 292 290 296 312 321 324 329 337 345 352 353 354 357 358 357 352 349 349 346 343 343 342 340 338 338 336 335 333 331 328 327 326 326 324 324 325 326 323 319 318 317 316 316 316 316 318 318 317 316 318 317 315 315 313 310 309 309 315 320 323 316 320 318 306 301
330 328 332 331 331 323 314 309 302 292 292 286 291 303 300 297 304 296 294 295 294 290 290 298 313 320 324 328 335 345 341 343 347 352 351 347 349 347 343 342 343 342 342 340 338 337 337 336 335 332 332 331 329 327 326 324 322 320 319 317 318 316 316 315 317 319 318 318 318 318 317 317 317 313 311 310 310 311 310 314 302 296 301 307 306
19 9 6 6 1 344 330 317 313 303 298 293 302 301 305 306 301 300 299 296 295 294 293 294 301 311 313 320 327 325 328 329 338 344 344 344 344 346 342 342 343 342 341 342 340 339 339 339 338 336 335 334 331 328 325 323 321 321 318 317 316 316 318 318 318 316 315 315 317 318 319 316 315 315 310 309 311 311 311 308 306 304 304 nan nan
19 17 16 17 13 4 346 337 330 318 310 306 303 306 306 308 306 300 298 296 295 298 299 299 295 299 307 310 313 316 325 334 335 334 340 342 343 343 342 338 339 342 342 340 339 339 340 342 340 339 337 335 332 328 325 322 319 318 317 317 318 318 320 321 319 319 314 318 316 320 320 319 317 314 313 314 314 313 312 307 310 312 nan nan nan
3 10 14 10 11 10 4 356 349 340 333 316 311 309 309 309 311 307 298 299 299 301 303 306 303 299 298 301 305 308 312 319 324 331 333 334 338 342 340 336 333 337 340 341 338 337 339 342 341 339 338 336 333 329 324 320 317 317 315 316 317 319 320 320 319 319 317 318 320 325 325 317 317 319 317 314 314 314 316 319 319 318 nan nan nan
351 356 358 359 356 358 357 356 349 346 352 325 324 320 318 316 314 310 302 302 302 303 306 307 305 305 302 298 300 305 310 312 319 324 324 328 330 332 332 330 330 333 334 337 337 339 338 340 340 340 337 336 334 327 321 319 318 317 317 317 318 320 321 321 317 317 319 321 326 325 327 322 316 313 316 317 320 321 321 318 324 nan nan nan nan
334 334 333 337 338 339 340 341 338 341 342 324 325 325 325 324 321 317 314 311 306 306 307 307 308 307 303 299 300 304 308 309 312 317 318 320 322 327 332 333 331 332 332 334 333 335 338 341 339 338 337 334 334 329 322 319 319 317 316 315 315 317 317 318 323 325 326 329 331 329 328 319 315 319 321 321 nan 318 316 317 nan nan nan nan nan
312 312 314 318 322 321 320 321 323 329 322 313 317 318 319 318 318 310 316 319 318 315 313 313 311 304 304 304 304 304 303 307 308 314 313 312 317 321 325 327 326 326 328 329 329 331 335 336 335 336 334 332 326 322 318 320 318 316 316 317 318 318 321 324 325 325 325 322 324 326 326 322 319 nan nan nan nan 321 320 319 nan nan nan nan nan
303 305 306 305 299 301 306 305 308 301 296 296 304 308 309 311 303 301 307 307 311 316 314 319 317 312 313 314 312 304 303 303 301 308 308 309 314 320 320 320 320 322 323 319 320 325 327 324 318 308 305 311 315 315 311 304 310 315 318 319 320 321 324 326 325 325 323 323 326 327 324 324 323 nan nan nan nan 323 323 323 321 nan nan nan nan
297 296 289 284 286 289 295 297 296 290 284 285 298 300 303 302 300 296 297 300 305 306 307 311 309 308 313 317 317 314 306 300 298 306 305 305 310 313 315 316 316 318 318 315 312 314 318 312 306 306 307 310 313 nan nan 313 311 316 320 320 320 322 325 326 326 323 nan nan nan nan 322 327 nan nan nan nan nan 328 325 321 nan nan nan nan nan
279 274 271 270 271 276 281 285 281 284 279 280 293 296 300 301 297 290 290 294 299 300 298 299 304 304 299 299 304 308 307 297 299 304 304 305 306 310 309 311 313 314 313 312 313 315 313 316 316 314 314 315 315 319 318 nan nan 321 322 320 319 322 325 325 323 nan nan nan nan 320 324 324 nan nan nan nan nan nan nan nan nan nan nan nan nan